^^
Paulen-Weather Station Historical Data
Daily Summary for January 06, 2020 Units:  Metric    English   Both
Daily Weekly Monthly Yearly Custom
  High: Low: Average:
Temperature: 8 °C 6 °C 7.5 °C
Dew Point: 8 °C 5 °C 6.7 °C
Humidity: 97% 88% 95%
Wind Speed: 37km/h 5km/h 18.9km/h
Wind Gust: 42km/h - -
Wind- - WSW
Pressure: 1018.12 hPa 1009.25 hPa -
Precipitation: 1.6 mm    
Historical Graphs
 
 
Tabular Data for January 06, 2020
Time Temperature Dew Point Pressure Wind Wind Speed Wind Gust Humidity Rainfall Rate (Hourly) solar
00:04 8 °C 7 °C 1018.08 hPa NW 6 km/h 14 km/h 93% 0 mm 0 W/m2
00:09 8 °C 7 °C 1018.02 hPa NW 12 km/h 16 km/h 93% 0 mm 0 W/m2
00:14 8 °C 7 °C 1017.98 hPa WNW 10 km/h 13 km/h 93% 0 mm 0 W/m2
00:19 8 °C 7 °C 1018.08 hPa WNW 14 km/h 13 km/h 93% 0 mm 0 W/m2
00:24 8 °C 7 °C 1018.12 hPa W 10 km/h 16 km/h 93% 0 mm 0 W/m2
00:29 8 °C 7 °C 1018.05 hPa WNW 9 km/h 11 km/h 93% 0 mm 0 W/m2
00:34 8 °C 7 °C 1018.02 hPa W 8 km/h 11 km/h 93% 0 mm 0 W/m2
00:39 8 °C 7 °C 1017.98 hPa WNW 12 km/h 13 km/h 93% 0 mm 0 W/m2
00:44 8 °C 7 °C 1017.98 hPa NW 10 km/h 16 km/h 93% 0 mm 0 W/m2
00:49 8 °C 7 °C 1017.91 hPa WNW 14 km/h 16 km/h 94% 0 mm 0 W/m2
00:54 8 °C 7 °C 1017.85 hPa NW 12 km/h 19 km/h 94% 0 mm 0 W/m2
00:59 8 °C 7 °C 1017.81 hPa W 13 km/h 19 km/h 94% 0 mm 0 W/m2
01:04 8 °C 7 °C 1017.78 hPa WNW 13 km/h 14 km/h 94% 0 mm 0 W/m2
01:09 8 °C 7 °C 1017.64 hPa NW 15 km/h 14 km/h 94% 0 mm 0 W/m2
01:14 8 °C 7 °C 1017.61 hPa WNW 13 km/h 19 km/h 94% 0 mm 0 W/m2
01:19 8 °C 7 °C 1017.68 hPa WNW 16 km/h 19 km/h 94% 0 mm 0 W/m2
01:24 8 °C 7 °C 1017.68 hPa WNW 16 km/h 19 km/h 94% 0 mm 0 W/m2
01:29 8 °C 7 °C 1017.71 hPa NNW 15 km/h 19 km/h 94% 0 mm 0 W/m2
01:34 8 °C 7 °C 1017.71 hPa NNW 16 km/h 19 km/h 94% 0 mm 0 W/m2
01:39 8 °C 7 °C 1017.61 hPa NNW 17 km/h 19 km/h 94% 0 mm 0 W/m2
01:44 8 °C 7 °C 1017.64 hPa NW 18 km/h 19 km/h 94% 0 mm 0 W/m2
01:49 8 °C 7 °C 1017.64 hPa WNW 16 km/h 19 km/h 94% 0 mm 0 W/m2
01:54 8 °C 7 °C 1017.61 hPa WNW 19 km/h 24 km/h 94% 0 mm 0 W/m2
01:59 8 °C 7 °C 1017.64 hPa NW 12 km/h 26 km/h 94% 0 mm 0 W/m2
02:04 8 °C 7 °C 1017.75 hPa WNW 14 km/h 16 km/h 94% 0 mm 0 W/m2
02:09 8 °C 7 °C 1017.71 hPa WNW 16 km/h 21 km/h 94% 0 mm 0 W/m2
02:14 8 °C 7 °C 1017.75 hPa WNW 13 km/h 21 km/h 94% 0 mm 0 W/m2
02:19 8 °C 7 °C 1017.75 hPa W 11 km/h 16 km/h 94% 0 mm 0 W/m2
02:24 8 °C 7 °C 1017.68 hPa NW 16 km/h 16 km/h 94% 0 mm 0 W/m2
02:29 8 °C 7 °C 1017.68 hPa WNW 10 km/h 19 km/h 94% 0 mm 0 W/m2
02:34 8 °C 7 °C 1017.68 hPa WNW 12 km/h 13 km/h 94% 0 mm 0 W/m2
02:39 8 °C 8 °C 1017.58 hPa WNW 15 km/h 19 km/h 95% 0 mm 0 W/m2
02:44 8 °C 8 °C 1017.64 hPa WNW 13 km/h 21 km/h 95% 0 mm 0 W/m2
02:49 8 °C 8 °C 1017.68 hPa WNW 13 km/h 19 km/h 95% 0 mm 0 W/m2
02:54 8 °C 8 °C 1017.68 hPa WNW 11 km/h 14 km/h 95% 0 mm 0 W/m2
02:59 8 °C 7 °C 1017.68 hPa WNW 12 km/h 13 km/h 94% 0 mm 0 W/m2
03:04 8 °C 7 °C 1017.61 hPa WNW 16 km/h 14 km/h 94% 0 mm 0 W/m2
03:09 8 °C 7 °C 1017.54 hPa WNW 11 km/h 23 km/h 94% 0 mm 0 W/m2
03:14 8 °C 7 °C 1017.54 hPa NW 14 km/h 14 km/h 94% 0 mm 0 W/m2
03:19 8 °C 7 °C 1017.54 hPa WNW 12 km/h 16 km/h 94% 0 mm 0 W/m2
03:24 8 °C 7 °C 1017.61 hPa WNW 9 km/h 14 km/h 94% 0 mm 0 W/m2
03:29 8 °C 7 °C 1017.54 hPa WNW 10 km/h 11 km/h 94% 0 mm 0 W/m2
03:34 8 °C 7 °C 1017.51 hPa NW 11 km/h 14 km/h 94% 0 mm 0 W/m2
03:39 8 °C 7 °C 1017.61 hPa WNW 12 km/h 13 km/h 94% 0 mm 0 W/m2
03:44 8 °C 7 °C 1017.64 hPa WNW 13 km/h 19 km/h 94% 0 mm 0 W/m2
03:49 8 °C 7 °C 1017.68 hPa WNW 12 km/h 24 km/h 94% 0 mm 0 W/m2
03:54 8 °C 7 °C 1017.64 hPa WNW 13 km/h 13 km/h 94% 0 mm 0 W/m2
03:59 8 °C 7 °C 1017.58 hPa WNW 13 km/h 19 km/h 94% 0 mm 0 W/m2
04:04 8 °C 7 °C 1017.47 hPa WNW 10 km/h 16 km/h 94% 0 mm 0 W/m2
04:09 8 °C 7 °C 1017.51 hPa WNW 9 km/h 18 km/h 94% 0 mm 0 W/m2
04:14 8 °C 7 °C 1017.51 hPa NW 8 km/h 11 km/h 94% 0 mm 0 W/m2
04:19 8 °C 7 °C 1017.37 hPa WNW 10 km/h 11 km/h 94% 0 mm 0 W/m2
04:24 8 °C 7 °C 1017.31 hPa WNW 10 km/h 14 km/h 94% 0 mm 0 W/m2
04:29 8 °C 7 °C 1017.2 hPa WNW 10 km/h 13 km/h 94% 0 mm 0 W/m2
04:34 8 °C 7 °C 1017.17 hPa WNW 15 km/h 16 km/h 94% 0 mm 0 W/m2
04:39 8 °C 7 °C 1017.2 hPa NW 13 km/h 19 km/h 94% 0 mm 0 W/m2
04:44 8 °C 7 °C 1017.2 hPa NW 9 km/h 19 km/h 94% 0 mm 0 W/m2
04:49 8 °C 7 °C 1017.17 hPa NW 8 km/h 11 km/h 94% 0 mm 0 W/m2
04:54 8 °C 7 °C 1017.14 hPa NW 8 km/h 13 km/h 94% 0 mm 0 W/m2
04:59 8 °C 7 °C 1017.07 hPa NW 9 km/h 11 km/h 93% 0 mm 0 W/m2
05:04 8 °C 7 °C 1017.1 hPa W 11 km/h 14 km/h 93% 0 mm 0 W/m2
05:09 8 °C 7 °C 1017.03 hPa WNW 15 km/h 14 km/h 93% 0 mm 0 W/m2
05:14 8 °C 7 °C 1017 hPa NW 10 km/h 19 km/h 93% 0 mm 0 W/m2
05:19 8 °C 7 °C 1017.03 hPa NW 15 km/h 14 km/h 93% 0 mm 0 W/m2
05:24 8 °C 7 °C 1017 hPa WNW 16 km/h 21 km/h 93% 0 mm 0 W/m2
05:29 8 °C 7 °C 1017 hPa NW 13 km/h 21 km/h 93% 0 mm 0 W/m2
05:34 8 °C 7 °C 1017.03 hPa WNW 6 km/h 19 km/h 93% 0 mm 0 W/m2
05:39 8 °C 7 °C 1017.03 hPa NW 13 km/h 13 km/h 93% 0 mm 0 W/m2
05:44 8 °C 7 °C 1016.97 hPa WNW 14 km/h 19 km/h 94% 0 mm 0 W/m2
05:49 8 °C 7 °C 1016.86 hPa WNW 15 km/h 19 km/h 94% 0 mm 0 W/m2
05:54 8 °C 7 °C 1016.76 hPa WNW 19 km/h 23 km/h 94% 0 mm 0 W/m2
05:59 8 °C 7 °C 1016.73 hPa WNW 16 km/h 23 km/h 94% 0 mm 0 W/m2
06:04 8 °C 7 °C 1016.7 hPa NW 17 km/h 26 km/h 94% 0 mm 0 W/m2
06:09 8 °C 7 °C 1016.66 hPa NW 14 km/h 16 km/h 94% 0 mm 0 W/m2
06:14 8 °C 7 °C 1016.63 hPa WNW 12 km/h 16 km/h 94% 0 mm 0 W/m2
06:19 8 °C 7 °C 1016.53 hPa NW 12 km/h 14 km/h 94% 0 mm 0 W/m2
06:24 8 °C 7 °C 1016.53 hPa NW 14 km/h 14 km/h 94% 0 mm 0 W/m2
06:29 8 °C 7 °C 1016.49 hPa NW 16 km/h 19 km/h 94% 0 mm 0 W/m2
06:34 8 °C 7 °C 1016.49 hPa NW 16 km/h 19 km/h 94% 0 mm 0 W/m2
06:39 8 °C 7 °C 1016.56 hPa NW 16 km/h 19 km/h 94% 0 mm 0 W/m2
06:44 8 °C 7 °C 1016.63 hPa NW 11 km/h 21 km/h 94% 0 mm 0 W/m2
06:49 8 °C 7 °C 1016.66 hPa NW 10 km/h 16 km/h 94% 0 mm 0 W/m2
06:54 8 °C 7 °C 1016.66 hPa NW 11 km/h 14 km/h 94% 0 mm 0 W/m2
06:59 8 °C 7 °C 1016.66 hPa NW 11 km/h 18 km/h 94% 0 mm 0 W/m2
07:04 8 °C 7 °C 1016.63 hPa WNW 12 km/h 19 km/h 94% 0 mm 0 W/m2
07:09 8 °C 7 °C 1016.59 hPa WNW 10 km/h 16 km/h 94% 0 mm 0 W/m2
07:14 8 °C 7 °C 1016.63 hPa WNW 14 km/h 19 km/h 94% 0 mm 0 W/m2
07:19 8 °C 7 °C 1016.7 hPa WNW 9 km/h 16 km/h 95% 0 mm 0 W/m2
07:24 8 °C 7 °C 1016.66 hPa WNW 8 km/h 13 km/h 95% 0 mm 0 W/m2
07:29 8 °C 7 °C 1016.63 hPa NW 12 km/h 11 km/h 95% 0 mm 0 W/m2
07:34 8 °C 7 °C 1016.63 hPa NW 9 km/h 14 km/h 95% 0 mm 0 W/m2
07:39 8 °C 7 °C 1016.66 hPa NW 13 km/h 11 km/h 95% 0 mm 0 W/m2
07:44 8 °C 7 °C 1016.66 hPa WNW 13 km/h 16 km/h 95% 0 mm 0 W/m2
07:49 8 °C 7 °C 1016.76 hPa NW 18 km/h 21 km/h 95% 0 mm 0 W/m2
07:54 8 °C 7 °C 1016.73 hPa WNW 14 km/h 27 km/h 95% 0 mm 0 W/m2
07:59 8 °C 7 °C 1016.73 hPa WNW 17 km/h 23 km/h 95% 0 mm 0 W/m2
08:04 8 °C 7 °C 1016.73 hPa WNW 16 km/h 23 km/h 95% 0 mm 0 W/m2
08:09 8 °C 7 °C 1016.76 hPa NW 11 km/h 19 km/h 95% 0 mm 0 W/m2
08:14 8 °C 7 °C 1016.76 hPa NW 10 km/h 16 km/h 95% 0 mm 0 W/m2
08:19 8 °C 7 °C 1016.73 hPa NW 12 km/h 14 km/h 95% 0 mm 0 W/m2
08:24 8 °C 7 °C 1016.73 hPa WNW 9 km/h 14 km/h 95% 0 mm 0 W/m2
08:29 8 °C 7 °C 1016.63 hPa NW 10 km/h 13 km/h 95% 0 mm 0 W/m2
08:34 8 °C 7 °C 1016.63 hPa WNW 11 km/h 14 km/h 95% 0 mm 0 W/m2
08:39 8 °C 7 °C 1016.63 hPa WNW 8 km/h 16 km/h 95% 0 mm 0 W/m2
08:44 8 °C 7 °C 1016.53 hPa WNW 6 km/h 11 km/h 95% 0 mm 0 W/m2
08:49 8 °C 7 °C 1016.49 hPa NW 7 km/h 10 km/h 95% 0 mm 0 W/m2
08:54 8 °C 7 °C 1016.42 hPa WNW 5 km/h 10 km/h 96% 0 mm 0 W/m2
08:59 8 °C 7 °C 1016.49 hPa WNW 7 km/h 6 km/h 96% 0 mm 0 W/m2
09:04 8 °C 7 °C 1016.53 hPa WNW 8 km/h 10 km/h 96% 0 mm 0 W/m2
09:09 8 °C 7 °C 1016.53 hPa WNW 5 km/h 11 km/h 96% 0 mm 0 W/m2
09:14 8 °C 7 °C 1016.46 hPa NW 9 km/h 10 km/h 96% 0 mm 0 W/m2
09:19 8 °C 7 °C 1016.49 hPa WNW 6 km/h 13 km/h 96% 0 mm 0 W/m2
09:24 8 °C 8 °C 1016.46 hPa WNW 8 km/h 8 km/h 96% 0 mm 5 W/m2
09:29 8 °C 8 °C 1016.42 hPa WNW 12 km/h 13 km/h 97% 0 mm 7 W/m2
09:34 8 °C 8 °C 1016.39 hPa WNW 16 km/h 16 km/h 97% 0 mm 7 W/m2
09:39 8 °C 8 °C 1016.39 hPa WNW 13 km/h 24 km/h 97% 0 mm 11 W/m2
09:44 8 °C 8 °C 1016.39 hPa NW 14 km/h 14 km/h 97% 0 mm 11 W/m2
09:49 8 °C 8 °C 1016.39 hPa W 14 km/h 21 km/h 96% 0 mm 12 W/m2
09:54 8 °C 8 °C 1016.39 hPa WNW 16 km/h 16 km/h 96% 0 mm 12 W/m2
09:59 8 °C 8 °C 1016.42 hPa WNW 13 km/h 19 km/h 96% 0 mm 12 W/m2
10:04 8 °C 8 °C 1016.46 hPa NW 20 km/h 21 km/h 96% 0 mm 16 W/m2
10:09 8 °C 8 °C 1016.46 hPa WNW 14 km/h 21 km/h 96% 0 mm 12 W/m2
10:14 8 °C 8 °C 1016.53 hPa NW 25 km/h 20 km/h 96% 0 mm 12 W/m2
10:19 8 °C 8 °C 1016.46 hPa NW 22 km/h 32 km/h 96% 0 mm 18 W/m2
10:24 8 °C 8 °C 1016.39 hPa WNW 16 km/h 23 km/h 96% 0 mm 18 W/m2
10:29 8 °C 8 °C 1016.32 hPa NW 17 km/h 26 km/h 96% 0 mm 12 W/m2
10:34 8 °C 8 °C 1016.32 hPa W 18 km/h 27 km/h 97% 0 mm 12 W/m2
10:39 8 °C 8 °C 1016.29 hPa WNW 16 km/h 19 km/h 97% 0 mm 11 W/m2
10:44 8 °C 8 °C 1016.29 hPa NW 20 km/h 19 km/h 97% 0 mm 14 W/m2
10:49 8 °C 8 °C 1016.26 hPa NNW 15 km/h 23 km/h 97% 0 mm 14 W/m2
10:54 8 °C 8 °C 1016.29 hPa WNW 16 km/h 19 km/h 97% 0 mm 14 W/m2
10:59 8 °C 8 °C 1016.26 hPa W 17 km/h 21 km/h 97% 0.2 mm 18 W/m2
11:04 8 °C 8 °C 1016.15 hPa WNW 20 km/h 19 km/h 97% 0.2 mm 19 W/m2
11:09 8 °C 8 °C 1016.05 hPa WNW 16 km/h 23 km/h 97% 0.2 mm 19 W/m2
11:14 8 °C 8 °C 1015.98 hPa NW 20 km/h 21 km/h 97% 0.2 mm 21 W/m2
11:19 8 °C 8 °C 1015.98 hPa NW 20 km/h 24 km/h 97% 0.2 mm 21 W/m2
11:24 8 °C 8 °C 1015.92 hPa WNW 23 km/h 23 km/h 97% 0.2 mm 26 W/m2
11:29 8 °C 8 °C 1015.82 hPa WNW 18 km/h 27 km/h 97% 0.2 mm 23 W/m2
11:34 8 °C 8 °C 1015.88 hPa NNW 18 km/h 23 km/h 97% 0.2 mm 19 W/m2
11:39 8 °C 8 °C 1015.85 hPa WNW 22 km/h 23 km/h 97% 0.2 mm 26 W/m2
11:44 8 °C 8 °C 1015.82 hPa N 21 km/h 24 km/h 97% 0.2 mm 39 W/m2
11:49 8 °C 8 °C 1015.75 hPa NW 23 km/h 24 km/h 97% 0.2 mm 47 W/m2
11:54 8 °C 8 °C 1015.75 hPa NW 23 km/h 27 km/h 97% 0.2 mm 53 W/m2
11:59 8 °C 8 °C 1015.68 hPa NNW 14 km/h 24 km/h 97% 0.2 mm 42 W/m2
12:04 8 °C 8 °C 1015.65 hPa WNW 16 km/h 16 km/h 97% 0 mm 63 W/m2
12:09 8 °C 8 °C 1015.48 hPa N 23 km/h 21 km/h 97% 0 mm 70 W/m2
12:14 8 °C 8 °C 1015.51 hPa NW 18 km/h 24 km/h 97% 0 mm 77 W/m2
12:19 8 °C 8 °C 1015.51 hPa NNW 21 km/h 27 km/h 97% 0 mm 37 W/m2
12:24 8 °C 8 °C 1015.51 hPa WNW 19 km/h 23 km/h 97% 0 mm 39 W/m2
12:29 8 °C 8 °C 1015.51 hPa N 15 km/h 23 km/h 97% 0 mm 33 W/m2
12:34 8 °C 8 °C 1015.44 hPa WNW 20 km/h 19 km/h 97% 0 mm 46 W/m2
12:39 8 °C 8 °C 1015.31 hPa N 17 km/h 23 km/h 97% 0 mm 35 W/m2
12:44 8 °C 8 °C 1015.31 hPa N 25 km/h 23 km/h 97% 0 mm 23 W/m2
12:49 8 °C 8 °C 1015.27 hPa NW 21 km/h 29 km/h 97% 0 mm 26 W/m2
12:54 8 °C 7 °C 1015.17 hPa N 18 km/h 29 km/h 97% 0 mm 33 W/m2
12:59 8 °C 7 °C 1015.21 hPa N 16 km/h 19 km/h 97% 0 mm 42 W/m2
13:04 8 °C 7 °C 1015.17 hPa WNW 19 km/h 23 km/h 97% 0 mm 44 W/m2
13:09 8 °C 7 °C 1015.04 hPa NW 14 km/h 21 km/h 97% 0 mm 39 W/m2
13:14 8 °C 7 °C 1015 hPa WNW 16 km/h 26 km/h 97% 0 mm 28 W/m2
13:19 8 °C 7 °C 1014.9 hPa NW 17 km/h 23 km/h 97% 0 mm 26 W/m2
13:24 8 °C 7 °C 1014.83 hPa NW 16 km/h 26 km/h 97% 0 mm 25 W/m2
13:29 8 °C 7 °C 1014.73 hPa NNW 14 km/h 19 km/h 97% 0 mm 21 W/m2
13:34 8 °C 7 °C 1014.66 hPa NW 17 km/h 16 km/h 97% 0 mm 19 W/m2
13:39 8 °C 7 °C 1014.56 hPa NW 17 km/h 24 km/h 97% 0 mm 18 W/m2
13:44 8 °C 7 °C 1014.56 hPa WNW 15 km/h 21 km/h 97% 0 mm 14 W/m2
13:49 8 °C 7 °C 1014.49 hPa NNW 16 km/h 21 km/h 97% 0 mm 11 W/m2
13:54 8 °C 7 °C 1014.39 hPa N 20 km/h 19 km/h 97% 0 mm 11 W/m2
13:59 8 °C 7 °C 1014.33 hPa NW 22 km/h 23 km/h 97% 0 mm 11 W/m2
14:04 8 °C 7 °C 1014.22 hPa N 19 km/h 24 km/h 97% 0 mm 9 W/m2
14:09 8 °C 7 °C 1014.22 hPa NW 20 km/h 24 km/h 97% 0 mm 9 W/m2
14:14 8 °C 7 °C 1014.16 hPa NNW 22 km/h 23 km/h 97% 0 mm 9 W/m2
14:19 8 °C 7 °C 1014.09 hPa N 20 km/h 27 km/h 97% 0 mm 7 W/m2
14:24 8 °C 7 °C 1013.99 hPa NNW 19 km/h 23 km/h 97% 0 mm 7 W/m2
14:29 8 °C 7 °C 1013.85 hPa NNW 22 km/h 23 km/h 97% 0 mm 5 W/m2
14:34 8 °C 7 °C 1013.85 hPa N 22 km/h 27 km/h 97% 0 mm 5 W/m2
14:39 8 °C 7 °C 1013.75 hPa N 24 km/h 26 km/h 97% 0 mm 5 W/m2
14:44 8 °C 7 °C 1013.75 hPa N 22 km/h 27 km/h 97% 0 mm 5 W/m2
14:49 8 °C 7 °C 1013.72 hPa NNW 24 km/h 27 km/h 97% 0 mm 5 W/m2
14:54 8 °C 7 °C 1013.68 hPa N 27 km/h 27 km/h 97% 0 mm 5 W/m2
14:59 8 °C 7 °C 1013.65 hPa N 23 km/h 29 km/h 97% 0 mm 5 W/m2
15:04 8 °C 7 °C 1013.61 hPa N 23 km/h 32 km/h 97% 0 mm 5 W/m2
15:09 7 °C 7 °C 1013.55 hPa N 22 km/h 29 km/h 97% 0 mm 5 W/m2
15:14 7 °C 7 °C 1013.55 hPa N 29 km/h 24 km/h 97% 0.2 mm 0 W/m2
15:19 7 °C 7 °C 1013.61 hPa N 23 km/h 32 km/h 97% 0.2 mm 0 W/m2
15:24 7 °C 7 °C 1013.61 hPa N 30 km/h 29 km/h 97% 0.2 mm 0 W/m2
15:29 7 °C 7 °C 1013.65 hPa NNW 32 km/h 32 km/h 97% 0.2 mm 0 W/m2
15:34 7 °C 7 °C 1013.58 hPa N 27 km/h 39 km/h 97% 0.2 mm 0 W/m2
15:39 7 °C 7 °C 1013.51 hPa N 24 km/h 32 km/h 96% 0.2 mm 0 W/m2
15:44 7 °C 7 °C 1013.44 hPa WNW 23 km/h 29 km/h 96% 0.2 mm 0 W/m2
15:49 7 °C 7 °C 1013.44 hPa NNW 18 km/h 29 km/h 97% 0.2 mm 0 W/m2
15:54 7 °C 7 °C 1013.41 hPa NNW 18 km/h 29 km/h 96% 0.2 mm 0 W/m2
15:59 7 °C 6 °C 1013.41 hPa NW 23 km/h 24 km/h 96% 0.2 mm 0 W/m2
16:04 7 °C 6 °C 1013.41 hPa NW 20 km/h 29 km/h 96% 0.2 mm 0 W/m2
16:09 7 °C 6 °C 1013.31 hPa N 22 km/h 26 km/h 96% 0.2 mm 0 W/m2
16:14 7 °C 6 °C 1013.28 hPa NNW 26 km/h 32 km/h 96% 0.2 mm 0 W/m2
16:19 7 °C 6 °C 1013.28 hPa N 25 km/h 32 km/h 96% 0 mm 0 W/m2
16:24 7 °C 6 °C 1013.21 hPa NNW 27 km/h 27 km/h 95% 0 mm 0 W/m2
16:29 7 °C 6 °C 1013.21 hPa W 29 km/h 34 km/h 94% 0 mm 0 W/m2
16:34 7 °C 6 °C 1013.14 hPa NW 28 km/h 32 km/h 94% 0 mm 0 W/m2
16:39 7 °C 6 °C 1013.04 hPa N 19 km/h 35 km/h 94% 0 mm 0 W/m2
16:44 7 °C 6 °C 1012.87 hPa N 28 km/h 24 km/h 94% 0 mm 0 W/m2
16:49 7 °C 6 °C 1012.9 hPa NNE 37 km/h 34 km/h 95% 0 mm 0 W/m2
16:54 7 °C 6 °C 1012.84 hPa N 29 km/h 40 km/h 95% 0 mm 0 W/m2
16:59 7 °C 6 °C 1012.87 hPa NNW 28 km/h 32 km/h 95% 0 mm 0 W/m2
17:04 7 °C 6 °C 1012.8 hPa NNW 29 km/h 32 km/h 96% 0 mm 0 W/m2
17:09 7 °C 6 °C 1012.73 hPa N 28 km/h 37 km/h 95% 0 mm 0 W/m2
17:14 7 °C 6 °C 1012.67 hPa N 26 km/h 40 km/h 95% 0 mm 0 W/m2
17:19 7 °C 6 °C 1012.67 hPa NW 29 km/h 27 km/h 94% 0 mm 0 W/m2
17:24 7 °C 6 °C 1012.6 hPa NNW 27 km/h 34 km/h 93% 0 mm 0 W/m2
17:29 7 °C 6 °C 1012.53 hPa NNW 27 km/h 27 km/h 93% 0 mm 0 W/m2
17:34 7 °C 6 °C 1012.5 hPa NNW 31 km/h 34 km/h 93% 0 mm 0 W/m2
17:39 7 °C 6 °C 1012.36 hPa NNE 30 km/h 37 km/h 93% 0 mm 0 W/m2
17:44 7 °C 6 °C 1012.29 hPa NNW 29 km/h 35 km/h 93% 0 mm 0 W/m2
17:49 7 °C 6 °C 1012.26 hPa NNW 26 km/h 37 km/h 93% 0 mm 0 W/m2
17:54 7 °C 6 °C 1012.23 hPa NNE 36 km/h 29 km/h 93% 0 mm 0 W/m2
17:59 7 °C 6 °C 1012.09 hPa N 24 km/h 40 km/h 93% 0 mm 0 W/m2
18:04 7 °C 6 °C 1011.99 hPa N 29 km/h 27 km/h 94% 0 mm 0 W/m2
18:09 7 °C 6 °C 1011.95 hPa NNE 27 km/h 32 km/h 94% 0 mm 0 W/m2
18:14 7 °C 6 °C 1011.92 hPa N 25 km/h 29 km/h 94% 0 mm 0 W/m2
18:19 7 °C 6 °C 1011.75 hPa NNE 28 km/h 26 km/h 95% 0 mm 0 W/m2
18:24 7 °C 6 °C 1011.72 hPa N 36 km/h 34 km/h 95% 0 mm 0 W/m2
18:29 7 °C 6 °C 1011.72 hPa NNE 34 km/h 42 km/h 95% 0 mm 0 W/m2
18:34 7 °C 6 °C 1011.65 hPa NNE 28 km/h 40 km/h 95% 0.2 mm 0 W/m2
18:39 7 °C 6 °C 1011.62 hPa NNE 29 km/h 29 km/h 94% 0.2 mm 0 W/m2
18:44 7 °C 6 °C 1011.62 hPa N 25 km/h 32 km/h 94% 0.2 mm 0 W/m2
18:49 7 °C 6 °C 1011.58 hPa NNW 27 km/h 32 km/h 94% 0.2 mm 0 W/m2
18:54 7 °C 6 °C 1011.45 hPa NNE 27 km/h 32 km/h 94% 0.2 mm 0 W/m2
18:59 7 °C 6 °C 1011.34 hPa NW 22 km/h 32 km/h 95% 0.2 mm 0 W/m2
19:04 7 °C 6 °C 1011.28 hPa N 26 km/h 32 km/h 95% 0.2 mm 0 W/m2
19:09 7 °C 6 °C 1011.24 hPa N 26 km/h 32 km/h 95% 0.2 mm 0 W/m2
19:14 7 °C 6 °C 1011.21 hPa N 27 km/h 32 km/h 95% 0.2 mm 0 W/m2
19:19 7 °C 6 °C 1011.21 hPa WNW 22 km/h 34 km/h 95% 0.2 mm 0 W/m2
19:24 7 °C 6 °C 1011.28 hPa NW 20 km/h 29 km/h 95% 0.2 mm 0 W/m2
19:29 7 °C 6 °C 1011.24 hPa NNE 23 km/h 24 km/h 95% 0.2 mm 0 W/m2
19:34 7 °C 6 °C 1011.21 hPa NNE 31 km/h 32 km/h 94% 0.2 mm 0 W/m2
19:39 7 °C 6 °C 1011.11 hPa NNE 24 km/h 37 km/h 94% 0 mm 0 W/m2
19:44 7 °C 6 °C 1011.11 hPa N 22 km/h 32 km/h 94% 0 mm 0 W/m2
19:49 7 °C 6 °C 1011.01 hPa N 26 km/h 26 km/h 94% 0.2 mm 0 W/m2
19:54 7 °C 6 °C 1010.94 hPa NNE 26 km/h 34 km/h 94% 0.2 mm 0 W/m2
19:59 7 °C 6 °C 1010.87 hPa NNE 32 km/h 29 km/h 94% 0.2 mm 0 W/m2
20:04 7 °C 6 °C 1010.77 hPa NNE 32 km/h 40 km/h 94% 0.2 mm 0 W/m2
20:09 7 °C 6 °C 1010.8 hPa NNE 28 km/h 34 km/h 95% 0.2 mm 0 W/m2
20:14 7 °C 6 °C 1010.84 hPa N 32 km/h 35 km/h 95% 0.2 mm 0 W/m2
20:19 7 °C 6 °C 1010.8 hPa NNE 26 km/h 40 km/h 95% 0.2 mm 0 W/m2
20:24 7 °C 6 °C 1010.7 hPa NNE 25 km/h 27 km/h 95% 0.2 mm 0 W/m2
20:29 7 °C 6 °C 1010.67 hPa NNE 28 km/h 32 km/h 95% 0.2 mm 0 W/m2
20:34 6 °C 6 °C 1010.74 hPa N 22 km/h 32 km/h 96% 0.2 mm 0 W/m2
20:39 6 °C 6 °C 1010.74 hPa NNE 29 km/h 32 km/h 96% 0.2 mm 0 W/m2
20:44 6 °C 6 °C 1010.74 hPa N 20 km/h 32 km/h 95% 0.2 mm 0 W/m2
20:49 6 °C 5 °C 1010.63 hPa N 25 km/h 24 km/h 95% 0.2 mm 0 W/m2
20:54 6 °C 5 °C 1010.46 hPa N 26 km/h 32 km/h 95% 0 mm 0 W/m2
20:59 6 °C 6 °C 1010.43 hPa NNW 24 km/h 32 km/h 95% 0 mm 0 W/m2
21:04 6 °C 6 °C 1010.4 hPa N 19 km/h 26 km/h 95% 0.2 mm 0 W/m2
21:09 6 °C 6 °C 1010.33 hPa NNE 27 km/h 24 km/h 95% 0.2 mm 0 W/m2
21:14 6 °C 6 °C 1010.19 hPa NNE 22 km/h 29 km/h 96% 0.2 mm 0 W/m2
21:19 6 °C 6 °C 1010.13 hPa NNW 31 km/h 39 km/h 95% 0.2 mm 0 W/m2
21:24 6 °C 5 °C 1009.96 hPa N 24 km/h 32 km/h 95% 0.2 mm 0 W/m2
21:29 6 °C 5 °C 1009.99 hPa NNW 24 km/h 29 km/h 95% 0.2 mm 0 W/m2
21:34 6 °C 6 °C 1009.99 hPa N 22 km/h 32 km/h 95% 0.2 mm 0 W/m2
21:39 6 °C 6 °C 1009.96 hPa NNE 25 km/h 24 km/h 94% 0.41 mm 0 W/m2
21:44 6 °C 6 °C 1009.92 hPa NNE 30 km/h 32 km/h 93% 0.41 mm 0 W/m2
21:49 6 °C 5 °C 1009.85 hPa NW 23 km/h 35 km/h 93% 0.41 mm 0 W/m2
21:54 6 °C 5 °C 1009.85 hPa NNW 22 km/h 27 km/h 93% 0.41 mm 0 W/m2
21:59 6 °C 6 °C 1009.89 hPa N 24 km/h 29 km/h 94% 0.41 mm 0 W/m2
22:04 6 °C 6 °C 1009.85 hPa NNE 25 km/h 26 km/h 95% 0.41 mm 0 W/m2
22:09 6 °C 6 °C 1009.82 hPa NW 26 km/h 29 km/h 95% 0.2 mm 0 W/m2
22:14 6 °C 5 °C 1009.79 hPa NNE 35 km/h 29 km/h 95% 0.2 mm 0 W/m2
22:19 6 °C 5 °C 1009.65 hPa NNE 24 km/h 37 km/h 95% 0.2 mm 0 W/m2
22:24 6 °C 5 °C 1009.72 hPa NW 29 km/h 34 km/h 95% 0.2 mm 0 W/m2
22:29 6 °C 5 °C 1009.69 hPa N 29 km/h 40 km/h 95% 0.41 mm 0 W/m2
22:34 6 °C 5 °C 1009.62 hPa NNE 27 km/h 35 km/h 94% 0.41 mm 0 W/m2
22:39 6 °C 6 °C 1009.62 hPa N 23 km/h 27 km/h 95% 0.41 mm 0 W/m2
22:44 6 °C 5 °C 1009.48 hPa NNE 35 km/h 28 km/h 93% 0.2 mm 0 W/m2
22:49 6 °C 5 °C 1009.52 hPa NNE 24 km/h 40 km/h 92% 0.2 mm 0 W/m2
22:54 7 °C 5 °C 1009.62 hPa N 33 km/h 37 km/h 90% 0.2 mm 0 W/m2
22:59 7 °C 5 °C 1009.65 hPa N 27 km/h 37 km/h 90% 0.2 mm 0 W/m2
23:04 7 °C 5 °C 1009.48 hPa N 27 km/h 32 km/h 89% 0.2 mm 0 W/m2
23:09 7 °C 5 °C 1009.38 hPa NNE 25 km/h 35 km/h 89% 0.2 mm 0 W/m2
23:14 7 °C 5 °C 1009.31 hPa NNE 25 km/h 29 km/h 89% 0.2 mm 0 W/m2
23:19 7 °C 5 °C 1009.38 hPa N 28 km/h 27 km/h 88% 0.2 mm 0 W/m2
23:24 7 °C 5 °C 1009.45 hPa NNE 23 km/h 32 km/h 88% 0.2 mm 0 W/m2
23:29 7 °C 5 °C 1009.48 hPa NW 26 km/h 29 km/h 89% 0.2 mm 0 W/m2
23:34 7 °C 5 °C 1009.58 hPa NNE 26 km/h 35 km/h 88% 0 mm 0 W/m2
23:39 7 °C 5 °C 1009.52 hPa N 20 km/h 32 km/h 88% 0 mm 0 W/m2
23:44 7 °C 5 °C 1009.48 hPa NNE 24 km/h 23 km/h 89% 0 mm 0 W/m2
23:49 7 °C 5 °C 1009.41 hPa NNW 24 km/h 29 km/h 91% 0 mm 0 W/m2
23:54 7 °C 6 °C 1009.31 hPa N 23 km/h 29 km/h 92% 0.2 mm 0 W/m2
23:59 7 °C 6 °C 1009.25 hPa NNE 23 km/h 27 km/h 93% 0.2 mm 0 W/m2
Compliments of Weather Underground - 2 mb